Regional Weather Roundup
Issued by NWS

Home | Current Version | Previous Version | Text Only | Print | Product List | Glossary On
Versions: 1 2 3 4 5 6 7 8 9 10 11 12 13 14 15 16 17 18 19 20 21 22 23 24 25 26 27 28 29 30 31 32 33 34 35 36 37 38 39 40 41 42 43 44 45 46 47 48 49 50
000
ASUS43 KLMK 010310
RWRKY
KENTUCKY REGIONAL WEATHER ROUNDUP
NATIONAL WEATHER SERVICE LOUISVILLE KY
1100 PM EDT SUN AUG 31 2014

NOTE "FAIR" INDICATES FEW OR NO CLOUDS BELOW 12,000 FEET
WITH NO SIGNIFICANT WEATHER AND/OR OBSTRUCTIONS TO VISIBILITY.

KYZ001>023-026-027-061>063-070>075-010400-
WESTERN AND SOUTH CENTRAL KENTUCKY

CITY           SKY/WX    TMP DP  RH WIND       PRES   REMARKS
PADUCAH        PTCLDY    79  73  82 S7        29.96S
HENDERSON      CLEAR     73  70  88 S6        29.95F
OWENSBORO      CLEAR     73  54  49 VRB5      29.98S
HOPKINSVILLE   CLEAR     76  76 100 S7        30.01S
BOWLING GREEN  PTCLDY    75  71  87 S5        30.03R
GLASGOW        CLOUDY    73  73 100 S3        30.04S
$$

KYZ024-025-028>034-038-045-046-053-010400-
NORTH CENTRAL KENTUCKY

CITY           SKY/WX    TMP DP  RH WIND       PRES   REMARKS
LOUISVILLE/SDF PTCLDY    76  72  87 S5        29.98F
LOUISVILLE/LOU CLOUDY    75  73  93 S3        29.99F
FORT KNOX      CLEAR     72  72 100 S6        29.99F
$$

KYZ035>037-039>044-047>052-055>060-089>105-010400-
NORTHEAST KENTUCKY

CITY           SKY/WX    TMP DP  RH WIND       PRES   REMARKS
LEXINGTON      CLOUDY    75  71  87 S6        30.04S
COVINGTON      CLEAR     72  68  87 S3        30.01S
FRANKFORT      CLOUDY    73  72  96 S6        30.01F
$$

KYZ054-064>069-076>088-106>120-010400-
SOUTHEAST KENTUCKY

CITY           SKY/WX    TMP DP  RH WIND       PRES   REMARKS
JACKSON        LGT RAIN  72  69  90 VRB3      30.08S
LONDON         CLOUDY    75  69  81 SW7       30.09R
SOMERSET       PTCLDY    72  72 100 S3        30.08S
MIDDLESBORO    CLOUDY    72  69  93 CALM      30.11S
MONTICELLO     PTCLDY    74  72  93 SW7       30.09R
$$




USA.gov is the U.S. government's official web portal to all federal, state and local government web resources and services.